Indian Springs, NV

3:58 AM PDT on April 20, 2018 (GMT -0700)
Indian Springs Air Force Auxiliary

Weather History for KINS - May, 2013

Change the Weather History Date:

Thursday, May 9, 2013

  Actual Average (KDRA) Record (KDRA)
Temperature  
Mean Temperature 60 °F -  
Max Temperature 74 °F 79 °F 96 °F (2001)
Min Temperature 48 °F 51 °F 38 °F (1979)
Degree Days  
Heating Degree Days 5    
Growing Degree Days 10 (Base 50)    
Moisture  
Dew Point 43 °F    
Average Humidity 52    
Maximum Humidity 76    
Minimum Humidity 29    
Precipitation  
Precipitation 0.00 in - - ()
Sea Level Pressure  
Sea Level Pressure 30.05 in    
Wind  
Wind Speed 4 mph (WNW)    
Max Wind Speed 14 mph    
Max Gust Speed 22 mph    
Visibility 10 miles    
Events Rain    
Averages and records for this station are not official NWS values.
T = Trace of Precipitation, MM = Missing Value Source: NWS Daily Summary

Daily Weather History Graph

Daily Weather History Graph

Search for Another Location

Airport or City:

Astronomy

May. 09, 2013 Rise Set
Actual Time 5:40 AM PDT 7:38 PM PDT
Civil Twilight 5:12 AM PDT 8:06 PM PDT
Nautical Twilight 4:37 AM PDT 8:41 PM PDT
Astronomical Twilight 4:00 AM PDT 9:18 PM PDT
Moon 5:27 AM PDT (5/9) 7:37 PM PDT (5/9)
Length of Visible Light 14h 54m
Length of Day
13h 57m
Waning Crescent, 0% of the Moon is Illuminated
May 9
Waning Crescent
May 9
New
May 17
First Quarter
May 24
Full
May 31
Last Quarter

Hourly Weather History & Observations

Time (PDT) Temp. Dew Point Humidity Pressure Visibility Wind Dir Wind Speed Gust Speed Precip Events Conditions
12:58 AM 54.5 °F 42.1 °F 63% 30.05 in 10.0 mi WSW 2.3 mph - N/A   Clear
1:58 AM 53.2 °F 42.1 °F 66% 30.04 in 10.0 mi Variable 1.2 mph - N/A   Clear
2:58 AM 50.7 °F 40.5 °F 68% 30.04 in 10.0 mi Calm Calm - N/A   Clear
3:58 AM 49.1 °F 41.7 °F 76% 30.03 in 10.0 mi WNW 3.5 mph - N/A   Clear
4:58 AM 48.7 °F 41.4 °F 76% 30.03 in 10.0 mi West 3.5 mph - N/A   Clear
5:58 AM 49.3 °F 40.8 °F 73% 30.04 in 10.0 mi West 3.5 mph - N/A   Clear
6:58 AM 50.0 °F 41.7 °F 73% 30.05 in 10.0 mi West 3.5 mph - N/A   Partly Cloudy
7:58 AM 54.0 °F 43.2 °F 67% 30.06 in 10.0 mi WSW 4.6 mph - N/A   Partly Cloudy
8:58 AM 59.7 °F 42.6 °F 53% 30.08 in 10.0 mi North 3.5 mph - N/A   Mostly Cloudy
9:58 AM 61.7 °F 41.5 °F 48% 30.07 in 10.0 mi Calm Calm - N/A   Overcast
10:58 AM 64.8 °F 39.9 °F 40% 30.08 in 8.0 mi East 1.2 mph - N/A   Mostly Cloudy
11:58 AM 68.4 °F 39.0 °F 34% 30.07 in 10.0 mi East 10.4 mph - N/A   Mostly Cloudy
12:58 PM 70.0 °F 39.2 °F 33% 30.05 in 10.0 mi ESE 9.2 mph - N/A   Scattered Clouds
1:58 PM 71.8 °F 37.8 °F 29% 30.04 in 10.0 mi NW 8.1 mph - N/A   Partly Cloudy
2:58 PM 72.7 °F 38.8 °F 29% 30.03 in 10.0 mi NNE 4.6 mph - N/A   Mostly Cloudy
3:52 PM 71.6 °F 39.2 °F 31% 30.02 in 10.0 mi WNW 13.8 mph 21.9 mph N/A   Partly Cloudy
3:58 PM 72.7 °F 39.7 °F 30% 30.02 in 10.0 mi West 8.1 mph 21.9 mph N/A   Partly Cloudy
4:55 PM 65.3 °F 50.4 °F 58% 29.96 in 8.0 mi West 8.1 mph - 0.00 in Rain Light Rain
5:33 PM 66.2 °F 48.2 °F 52% 30.04 in 10.0 mi Variable 2.3 mph - N/A   Mostly Cloudy
5:55 PM 66.2 °F 46.4 °F 49% 29.96 in 10.0 mi West 4.6 mph - N/A   Mostly Cloudy
5:56 PM 66.2 °F 46.4 °F 49% 30.04 in 10.0 mi NE 1.2 mph - N/A   Mostly Cloudy
6:06 PM 66.2 °F 46.4 °F 49% 30.04 in 10.0 mi Calm Calm - N/A   Light Drizzle
6:14 PM 68.0 °F 46.4 °F 46% 30.04 in 10.0 mi WSW 4.6 mph - N/A   Mostly Cloudy
6:58 PM 68.0 °F 46.6 °F 46% 30.04 in 10.0 mi NNW 5.8 mph - 0.00 in   Partly Cloudy
7:58 PM 64.9 °F 46.4 °F 51% 30.06 in 10.0 mi NNW 3.5 mph - N/A   Partly Cloudy
8:58 PM 63.5 °F 46.8 °F 54% 30.07 in 10.0 mi WSW 3.5 mph - N/A   Mostly Cloudy
9:58 PM 61.9 °F 46.2 °F 56% 30.09 in 10.0 mi SW 5.8 mph - N/A   Clear
10:58 PM 60.4 °F 44.4 °F 56% 30.09 in 10.0 mi West 9.2 mph - N/A   Clear
11:58 PM 60.1 °F 43.2 °F 54% 30.09 in 10.0 mi West 9.2 mph - N/A   Clear